Home   Weather   Dharamshala   Past weeks

Flag for India Past Weather in Dharamshala, Himachal Pradesh, India — Yesterday and Last 2 Weeks

Now
73 °F

Scattered clouds.


Feels Like: 77 °F
Forecast: 42 / 59 °F
Wind: 13 mph from Southeast

Location: Amritsar Airport

Current Time: Dec 10, 2016 at 2:31:25 pm

Latest Report: Dec 10, 2016 at 2:00 pm


Visibility: 1 mi

Pressure: 29.86 "Hg (25.46 "Hg at 1382m altitude)

Humidity: 57%

Dew Point: 57 °F

Location of DharamshalaLocation

Past Weather in Dharamshala — Graph

°F

Dharamshala Temperature Yesterday

Maximum temperature yesterday: 73 °F (at 3:30 pm)
Minimum temperature yesterday: 52 °F (at 4:00 am)
Average temperature yesterday: 58 °F

High & Low Weather Summary for the Past Weeks

 TemperatureHumidityPressure
High82 °F (Nov 25, 3:00 pm)100% (Nov 28, 7:30 am)30.18 "Hg (Nov 28, 7:30 am)
Low45 °F (Nov 28, 7:30 am)17% (Nov 28, 2:30 pm)29.89 "Hg (Nov 28, 3:30 pm)
Average61 °F77%30.02 "Hg
* Reported Nov 25 12:30 pm — Dec 10 1:00 pm, Dharamshala, Weather by CustomWeather, © 2016

Note: Actual official high and low records may vary slightly from our data, if they occured in-between our weather recording intervals... More about our weather records

Advertising

Dharamshala Weather History for the Previous 24 Hours

Scroll right to see more
 ConditionsComfort  
Time TempWeatherWind HumidityBarometerVisibility
1:00 pm
Sat, Dec 10
73 °FScattered clouds.9 mph57%29.89 "Hg1 mi
12:30 pm70 °FScattered clouds.No wind64%29.92 "Hg1 mi
12:00 pm70 °FScattered clouds.1 mph64%29.95 "Hg1 mi
11:30 am68 °FScattered clouds.8 mph69%29.95 "Hg1 mi
11:00 am66 °FFog.9 mph100%29.95 "Hg1 mi
10:30 am64 °FFog.7 mph100%29.98 "Hg1 mi
10:00 am61 °FFog.8 mph100%29.95 "Hg1 mi
7:30 am50 °FFog.3 mph100%29.92 "Hg0 mi
6:30 am50 °FFog.No wind100%29.89 "Hg0 mi
6:00 am50 °FFog.No wind100%29.89 "Hg0 mi
5:30 am48 °FFog.No wind100%29.89 "Hg0 mi
4:30 am48 °FFog.No wind100%29.89 "Hg0 mi
4:00 am50 °FFog.No wind100%29.89 "Hg0 mi
3:30 am50 °FFog.No wind100%29.89 "Hg0 mi
3:00 am52 °FFog.No wind100%29.89 "Hg0 mi
2:30 am52 °FFog.No wind100%29.89 "Hg0 mi
2:00 am52 °FFog.No wind100%29.89 "Hg0 mi
1:00 am54 °FFog.No wind100%29.92 "Hg0 mi
12:30 am54 °FFog.No wind100%29.92 "Hg0 mi
12:00 am54 °FFog.No wind100%29.92 "Hg0 mi
11:30 pm
Fri, Dec 9
55 °FFog.No wind100%29.92 "Hg0 mi
11:00 pm55 °FFog.No wind100%29.92 "Hg0 mi
10:30 pm57 °FFog.No wind100%29.92 "Hg0 mi
10:00 pm57 °FFog.No wind100%29.92 "Hg0 mi
9:30 pm57 °FFog.No wind100%29.92 "Hg0 mi
9:00 pm59 °FFog.No wind100%29.92 "Hg0 mi
8:30 pm59 °FFog.No wind100%29.92 "Hg0 mi
8:00 pm59 °FFog.No wind100%29.92 "Hg1 mi
7:30 pm61 °FFog.No wind100%29.92 "Hg1 mi
7:00 pm63 °FFog.No wind100%29.89 "Hg1 mi
6:30 pm64 °FFog.No wind100%29.89 "Hg1 mi
6:00 pm64 °FFog.No wind100%29.89 "Hg1 mi
5:30 pm66 °FFog.No wind100%29.89 "Hg1 mi
5:00 pm68 °FFog.No wind100%29.89 "Hg1 mi
4:30 pm72 °FFog.No wind83%29.89 "Hg1 mi
4:00 pm72 °FFog.No wind83%29.89 "Hg1 mi
3:30 pm73 °FFog.No wind100%29.92 "Hg1 mi
3:00 pm72 °FFog.No wind100%29.92 "Hg1 mi
Weather by CustomWeather, © 2016

See weather overviewHow to use our weather pages